This demonstration page uses our WeatherBlox Daily Observations layout. Learn more.

Left ArrowRight Arrow

39.12711, -84.51439

Hourly Observations for June 17, 2018

Temp ( °F °C ) Dew Point ( °F °C ) Humidity (%) Winds ( mph kmh ) Pressure ( in mb ) Visibility ( mi km ) Precip ( " mm )
12:53 am 00:53 Clear 74 23.3 73 22.8 97 97 N N/A 30.03 1017 9 14 N/A
1:53 am 01:53 Clear 73 22.8 72 22.2 96 96 N N/A 30.03 1017 7 11 N/A
2:53 am 02:53 Clear with Mist and Fog 70 21.1 70 21.1 100 100 SSW 3 6 30.03 1017 6 10 N/A
3:53 am 03:53 Clear with Mist and Fog 71 21.7 71 21.7 100 100 N N/A 30.02 1017 4 6 N/A
4:53 am 04:53 Clear with Mist and Fog 70 21.1 70 21.1 100 100 N N/A 30.04 1017 3 5 N/A
4:55 am 04:55 Clear with Mist and Fog 69 20.6 69 20.6 100 100 N N/A 30.03 1017 2 3 N/A
5:05 am 05:05 Clear with Mist and Fog 69 20.6 69 20.6 100 100 N N/A 30.03 1017 3 5 N/A
5:32 am 05:32 Clear with Mist and Fog 69 20.6 69 20.6 100 100 N N/A 30.03 1017 2 3 N/A
5:41 am 05:41 Clear with Mist and Fog 69 20.6 69 20.6 100 100 N N/A 30.06 1018 3 5 N/A
5:53 am 05:53 Clear with Mist and Fog 69 20.6 69 20.6 100 100 N N/A 30.07 1018 4 6 N/A
6:33 am 06:33 Sunny with Mist and Fog 68 20 68 20 100 100 SSW 5 7 30.06 1018 1 2 N/A
6:40 am 06:40 Sunny with Fog 67 19.4 67 19.4 100 100 S 3 6 30.06 1018 1 1 N/A
6:47 am 06:47 Sunny with Mist and Fog 66 19 66 19 100 100 S 3 6 30.06 1018 2 3 N/A
6:53 am 06:53 Sunny with Mist and Fog 68 20 68 20 100 100 N N/A 30.07 1018 6 10 N/A
7:53 am 07:53 Sunny with Mist and Fog 73 22.8 72 22.2 96 96 N N/A 30.08 1019 6 10 N/A
8:53 am 08:53 Sunny 78 25.6 73 22.8 85 85 N N/A 30.10 1019 9 14 N/A
9:53 am 09:53 Sunny 83 28.3 74 23.3 74 74 S 3 6 30.10 1019 10 16 N/A
10:53 am 10:53 Sunny 87 30.6 74 23.3 65 65 N N/A 30.10 1019 10 16 N/A
11:53 am 11:53 Sunny 90 32.2 73 22.8 58 58 N N/A 30.10 1019 10 16 N/A
12:53 pm 12:53 Partly Cloudy 92 33.3 71 21.7 51 51 SSW 5 7 30.09 1019 10 16 N/A
1:53 pm 13:53 Partly Cloudy 92 33.3 71 21.7 51 51 N N/A 30.07 1018 10 16 N/A
2:53 pm 14:53 Partly Cloudy 93 33.9 72 22.2 50 50 ESE 3 6 30.06 1018 10 16 N/A
3:53 pm 15:53 Partly Cloudy 90 32.2 73 22.8 58 58 S 8 13 30.05 1018 10 16 N/A
4:53 pm 16:53 Mostly Sunny 91 32.8 75 23.9 59 59 SSE 7 11 30.04 1017 10 16 N/A
5:53 pm 17:53 Sunny 92 33.3 75 23.9 58 58 S 8 13 30.03 1017 10 16 N/A
6:53 pm 18:53 Mostly Sunny 90 32.2 73 22.8 58 58 S 8 13 30.02 1017 10 16 N/A
7:53 pm 19:53 Sunny 87 30.6 75 23.9 67 67 S 3 6 30.03 1017 10 16 N/A
8:53 pm 20:53 Sunny 83 28.3 74 23.3 74 74 SSW 5 7 30.02 1017 10 16 N/A
9:53 pm 21:53 Clear 79 26.1 75 23.9 88 88 N N/A 30.03 1017 10 16 N/A
10:53 pm 22:53 Clear 77 25 74 23.3 90 90 N N/A 30.05 1018 8 13 N/A
11:53 pm 23:53 Clear 75 23.9 73 22.8 94 94 N N/A 30.05 1018 7 11 N/A

Powered by AerisWeather